Погода в Бресте

Поиск расширенной информации на нашем сайте:

Полезная информация:

Новости сайта



02.01.2020
Опубликован Долгосрочный прогноз погоды по городам России и ближнего зарубежья на январь 2020 года.
Карты: Прогноз на январь и февраль 2020 года, Сравнение прогнозируемой аномалии приземной температуры воздуха на январь 2020 года по разным моделям.




Погода в Бресте - сегодня

Время (UTC), дата Ветер
(°,м/с) 
Видим.   Явления Облачность Т
(°С)
Тd
(°С)
f(%) Тe
(°С)
Pmin
(гПа)
dP
(гПа)
Po
(мм)
O2
(г/м3)
Тmin Tmax R s Состояние
почвы
09 16.01.21 290 (З) 20000 м    3/0 средняя 
[Ac trans]
-12.1 -14 86 -14  1017.8  -0.2  749  317           
12 16.01.21 250 (З) 12000 м    8/0 верхняя 
[Cs]
-9.7 -13.3 75 -13  1015.7  -1.9  748  313           
15 16.01.21 180 (Ю) 1500 м  снег  10/10 500 м 
[Ns]
-9.9 -11.1 91 -13  1012.8  -2.9  745  313           
18 16.01.21 160 (Ю) 2800 м  слаб. снег  10/10 570 м 
[Ns]
-8.6 -9.4 94 -12  1011  -1.6  744  311    -8.6     
21 16.01.21 100 (В) 12000 м  слаб. снег  10/10 300 м 
[Frnb|Ns]
-10 -10.8 94 -13  1012.8  1.6  745  313           
00 17.01.21 080 (В) 15000 м  в посл. час снег  10/10 480 м 
[Sc]
-10.9 -11.9 92 -14  1015.1  2.2  747  315           
03 17.01.21 070 (В) 12000 м    10/10 500 м 
[Sc]
-12.8 -14.2 89 -16  1017.2  1.9  748  318      0.8  13   
06 17.01.21 060 (СВ) 15000 м    10/10 540 м 
[Sc]
-14.4 -16.1 87 -14  1019  1.7  750  320  -14.5    0.8  13  равномерный
сухой снег
100% 
09 17.01.21 040 (СВ) 20000 м  в посл. час снег  8/8 600 м 
[Sc]
-15.5 -17.9 82 -16  1021.1  751  322           
12 17.01.21 350 (С) 20000 м  {снег}  3/0 верхняя 
[Cs]
-14.5 -18.3 73 -17  1021.6  0.5  752  321           
15 17.01.21 320 (СЗ) 20000 м    4/0 верхняя 
[Cs]
-15.1 -17.9 79 -17  1022  0.4  752  322      0.0     
18 17.01.21 320 (СЗ) 12000 м    ясно 
-16.7 -19.2 81 -19  1023  0.8  752  324    -14.1  0.0     
21 17.01.21 320 (СЗ) 12000 м    ясно 
-19.2 -21.2 84 -19  1023.8  0.6  753  328           
00 18.01.21 330 (СЗ) 8000 м  дымка  ясно 
-20.9 -22.5 87 -24  1024.2  0.3  753  330           
03 18.01.21 280 (З) 4400 м  слаб. снег  10/10 450 м 
[Sc]
-20.6 -22.3 86 -21  1024.3  0.1  753  330      0.0  12   
06 18.01.21 290 (З) 4700 м  {снег}  6/0 средняя, верхняя 
[Ac trans|Ci fib]
-20.8 -22.7 85 -24  1024.3  753  330  -21.6    0.0  11  равномерный
сухой снег
100% 
09 18.01.21 330 (СЗ) 6000 м  дымка{снег}  3/0 верхняя 
[Ci fib]
-18.3 -20.1 86 -19  1024.6  0.5  754  327           
12 18.01.21 240 (ЮЗ) 4400 м  ледяные иглы{снег}  4/0 средняя 
[Ac trans]
-14.5 -17.3 79 -17  1024  -0.3  753  322           
15 18.01.21 240 (ЮЗ) 6000 м  дымка{снег}  8/0 верхняя 
[Cs]
-14.6 -17.9 76 -15  1023.6  -0.4  753  322      0.0     
18 18.01.21 250 (З) 4300 м  дымка{снег}  9/0 средняя 
[Ac trans]
-15 -18 78 -15  1023.4  -0.2  753  322    -12.9  0.0     
21 18.01.21 220 (ЮЗ) 4200 м  дымка  9/0 средняя 
[Ac trans]
-14.7 -17.1 82 -17  1023.2  -0.2  753  322           
00 19.01.21 220 (ЮЗ) 4200 м  дымка  9/0 средняя 
[Ac trans]
-15.1 -17.1 85 -17  1022.8  -0.4  752  322           
03 19.01.21 190 (Ю) 2900 м  дымка  ясно 
-16.3 -17.7 89 -16  1021.9  -1  752  324           
06 19.01.21 160 (Ю) 3100 м  дымка  3/0 средняя 
[Ac trans]
-17.6 -18.8 90 -18  1021.1  -0.9  751  325  -18      10  равномерный
сухой снег
100% 
09 19.01.21 130 (ЮВ) 3400 м  дымка  ясно 
-15 -16.7 87 -17  1020.6  -0.3  751  322           
Время (UTC), дата Ветер
(°,м/с) 
Видим.   Явления Облачность Т
(°С)
Тd
(°С)
f(%) Тe
(°С)
Pmin
(гПа)
dP
(гПа)
Po
(мм)
O2
(г/м3)
Тmin Tmax R s Состояние
почвы

Для получения пояснительной информации подведите курсор к названию столбца.

ПОГОДА в Бресте - архив

Всё, что Вы хотите узнать о погоде в Бресте - удобно и подробно!

Выберите нужную дату (начиная с 1 января 2019* года) и нажмите кнопку "Найти".
Будут отображены архивные сводки погоды по пункту Брест, начиная с указанной даты.


Отображать данные в формате CSV (для использования в таблицах Excel)


Внимание! Наш архив погоды предназначен исключительно для личного некоммерческого использования в познавательных целях. Если Вам необходимы официальные справки о состоянии погоды (для производственных, юридических, коммерческих и т.п. целей), обращайтесь в органы Росгидромета.

*Примечание: данная дата относится к архиву по метеостанциям СССР (Россия, СНГ, Балтия).
Архив по метеостанциям Зарубежной Европы и Азии (кроме Китая) хранится 10 дней, по другим регионам земного шара (Китай, Африка, Америка, Австралия, Океания) - 1 день.

Брест - район местоположения метеостанции


Название, широта, долгота, высота метеостанции:
Брест 52.1°ш. 23.7°д. 146 м над ур. моря [Беларусь]

Дополнительная информация

В oтличие oт бoльшинства пoгoдных сайтoв мы публикуем пoдрoбную метеoинфoрмацию в детальнoм прoфессиoнальнoм фoрмате.

Характеристики температуры и влажнoсти вoздуха измеряются на высoте 2 м в тени вдали oт зданий и деревьев.
Скoрoсть ветра измеряется на высoте 10 м (на урoвне рoста челoвека скoрoсть ветра ниже в 1.5-2 раза). Если метеoстанция нахoдится в гoрoде или в лесу, тo скoрoсть ветра занижена на 2-4 м/с пo сравнению с oткрытым местoм. Скoрoсть ветра над акватoриями крупных рек и oзёр, а также на вершинах хoлмoв на 2-5 м/с выше, чем в oбычных услoвиях.
Атмoсфернoе давление в разных тoчках местнoсти мoжет значительнo oтличаться oт давления на метеoстанции, в зависимoсти oт услoвий рельефа (при пoдъёме на 10 м давление пoнижается примернo на 1 мм рт.ст.).